Dewpoint
47 48 51 52 56 59 58 58 57 57 57 56 56 54 54 53 50 49 48 49 49 46 45 43 42 41 40 39 39 40 39 39
45 48 52 56 59 58 58 57 57 57 56 54 53 52 51 49 47 48 49 49 45 45 45 43 41 40 38 40 39 38 38 38
43 45 55 58 58 58 58 57 57 57 56 54 53 50 48 47 47 47 49 47 44 42 41 41 40 39 40 40 39 39 39 38
45 49 57 58 58 59 58 58 57 57 57 53 53 50 48 48 47 48 47 44 42 42 41 41 40 41 40 40 40 39 38 38
47 49 57 58 59 59 58 58 58 58 55 54 52 48 47 47 47 48 44 44 43 41 40 40 41 42 40 41 41 40 40 37
48 50 56 58 59 59 58 58 58 57 56 53 50 48 47 48 48 46 45 45 44 41 42 42 40 41 38 36 35 36 37 37
49 52 55 58 59 59 59 58 57 55 53 50 48 48 47 47 47 46 46 45 43 41 39 37 37 36 35 36 35 35 36 36
52 54 54 56 57 58 58 58 52 50 49 49 49 45 44 44 44 43 40 39 39 36 35 35 35 35 34 35 35 35 35 36
54 55 54 55 56 56 55 51 49 49 48 49 47 42 42 41 42 40 40 39 37 35 35 34 33 34 34 34 35 35 36 36
50 51 52 53 52 51 49 47 47 49 49 46 43 42 41 39 39 39 38 37 34 35 34 31 32 33 34 37 36 36 35 36
47 48 49 50 49 49 49 47 48 49 45 43 41 41 39 39 38 37 36 35 34 33 31 31 32 34 35 34 35 34 34 34
45 45 47 48 48 49 48 47 47 44 42 42 41 39 40 40 38 37 35 34 33 31 31 31 32 34 33 33 33 33 32 32
44 42 45 46 47 48 49 46 44 43 42 41 40 40 41 37 36 35 35 33 33 31 32 32 33 33 32 31 33 33 32 31
43 42 44 45 47 48 48 45 43 40 38 39 43 42 39 36 35 35 33 33 31 31 32 33 33 33 30 31 32 32 30 29
42 41 43 45 47 48 47 43 40 39 38 39 39 39 37 34 33 33 33 32 31 32 33 34 35 32 31 32 30 28 27 26
41 42 46 48 48 48 44 42 39 39 38 37 38 38 35 34 34 34 34 33 32 32 33 34 33 31 29 29 27 26 25 25
41 46 46 46 46 43 41 38 39 39 38 36 34 35 33 35 33 33 33 33 32 33 32 33 32 30 31 30 27 24 24 24
39 42 44 45 43 42 38 38 40 38 33 32 33 34 33 32 31 30 29 30 31 32 31 32 33 31 31 30 28 23 23 23
38 40 41 41 42 39 38 35 32 32 30 31 31 31 30 30 29 29 30 32 32 31 31 31 33 32 32 31 27 22 23 24
Lifted_Index
-0 -0 -1 -1 -1 -2 -2 -2 -2 -2 -1 -1 -1 -0 1 2 2 3 3 4 6 7 7 7 8 8 8 9 10 10 10 10
0 -0 -1 -1 -2 -2 -3 -3 -2 -2 -1 -0 -0 0 1 2 2 3 4 5 7 7 7 8 7 8 8 9 10 10 10 10
0 -0 -1 -2 -3 -3 -3 -3 -2 -1 -0 0 1 1 2 3 3 4 5 6 7 8 8 8 8 8 9 10 10 10 10 10
-0 -1 -2 -3 -3 -3 -3 -2 -1 -1 0 1 1 2 3 4 5 5 6 6 7 8 8 8 8 9 9 10 10 10 10 10
-1 -2 -3 -3 -3 -3 -3 -2 -1 -0 0 1 2 3 4 5 5 5 6 6 7 7 8 8 9 9 9 9 10 10 10 11
-1 -2 -3 -4 -4 -3 -3 -2 -1 -0 0 2 3 4 4 5 5 5 5 6 7 8 8 9 9 9 9 9 10 11 11 11
-2 -2 -3 -4 -4 -3 -2 -2 -1 -0 1 2 3 4 4 4 5 5 5 6 7 8 8 9 9 9 9 10 11 12 12 11
-2 -3 -3 -3 -3 -3 -2 -2 -1 -0 1 2 3 3 3 4 4 5 5 6 7 8 8 9 9 10 11 11 12 12 12 11
-3 -3 -3 -3 -3 -2 -2 -1 -1 0 2 2 3 3 3 3 4 5 5 6 6 7 8 9 10 11 12 12 12 12 11 11
-3 -3 -3 -3 -2 -2 -1 -0 0 1 2 2 2 2 2 3 4 5 5 6 7 8 9 10 11 12 12 12 12 11 11 11
-2 -2 -2 -2 -1 -1 -1 0 1 1 1 2 2 2 2 3 5 6 7 8 9 9 10 11 12 12 12 12 12 12 12 12
-1 -1 -1 -1 -0 -0 -0 1 1 1 1 1 2 2 3 4 6 7 8 9 10 10 11 12 12 12 12 12 12 12 12 12
-1 -1 -0 0 1 1 0 1 1 1 1 1 2 3 4 5 7 8 9 10 10 11 12 12 12 12 12 12 12 12 12 12
-1 -0 0 1 1 1 1 1 1 1 1 2 3 4 5 7 8 9 10 10 10 11 12 12 12 12 11 12 12 12 12 12
-1 -0 0 1 1 1 1 0 0 1 1 2 4 5 7 8 9 9 10 10 10 11 12 12 12 11 11 11 11 12 12 12
-1 -1 -0 -0 0 0 0 0 0 1 1 3 5 7 8 9 9 9 10 10 11 12 12 12 11 11 11 11 11 11 11 11
-1 -1 -1 -0 -0 -0 -0 0 1 1 3 5 7 8 9 9 9 10 10 11 12 12 12 11 11 11 10 10 11 11 10 10
0 -0 -0 -0 -0 -0 0 1 2 3 4 6 8 9 9 10 10 11 11 12 12 12 11 11 10 10 10 10 10 10 9 9
1 1 0 -0 -0 0 1 2 3 4 5 7 8 9 10 10 11 11 12 12 12 12 11 10 10 10 10 10 10 9 9 8